This is the latest recevied weather packets stored in our database for station/object N3EDS. If no packets are shown the sender has not sent any weather packets the latest 10 day(s).
| Time | Temp. | Humidity | Pressure | Rain* | Wind** | Luminosity | Snow |
|---|---|---|---|---|---|---|---|
| 1777829817 | 11.11° C | 43% | 1016.8 hPa | 0 mm | - | 912 W/m² | - |
| 1777829513 | 10.56° C | 44% | 1016.6 hPa | 0 mm | - | 902 W/m² | - |
| 1777829210 | 10.56° C | 45% | 1016.6 hPa | 0 mm | - | 969 W/m² | - |
| 1777828907 | 10.56° C | 51% | 1016.4 hPa | 0 mm | - | 913 W/m² | - |
| 1777828604 | 10.56° C | 44% | 1016.8 hPa | 0 mm | - | 928 W/m² | - |
| 1777828301 | 10.56° C | 47% | 1016.9 hPa | 0 mm | - | 981 W/m² | - |
| 1777827998 | 10.56° C | 45% | 1017 hPa | 0 mm | - | 300 W/m² | - |
| 1777827695 | 10.56° C | 46% | 1016.8 hPa | 0 mm | - | 913 W/m² | - |
| 1777827392 | 10° C | 49% | 1016.9 hPa | 0 mm | - | 964 W/m² | - |
| 1777827088 | 9.44° C | 51% | 1017.2 hPa | 0 mm | - | 368 W/m² | - |
| 1777826785 | 10° C | 48% | 1017.1 hPa | 0 mm | - | 480 W/m² | - |
| 1777826482 | 10.56° C | 47% | 1017 hPa | 0 mm | - | 933 W/m² | - |
| 1777826178 | 10.56° C | 47% | 1017.3 hPa | 0 mm | - | 888 W/m² | - |
| 1777825876 | 10° C | 51% | 1017.1 hPa | 0 mm | - | 496 W/m² | - |
| 1777825573 | 10° C | 50% | 1017.2 hPa | 0 mm | - | 908 W/m² | - |
| 1777825271 | 9.44° C | 49% | 1017.1 hPa | 0 mm | - | 865 W/m² | - |
| 1777824968 | 9.44° C | 48% | 1017.3 hPa | 0 mm | - | 359 W/m² | - |
| 1777824663 | 8.89° C | 55% | 1017.1 hPa | 0 mm | - | 254 W/m² | - |
| 1777824361 | 8.89° C | 50% | 1017.3 hPa | 0 mm | - | 688 W/m² | - |
| 1777824056 | 10° C | 48% | 1017.1 hPa | 0 mm | - | 665 W/m² | - |
| 1777823753 | 8.89° C | 50% | 1017.3 hPa | 0 mm | - | 848 W/m² | - |
| 1777823450 | 9.44° C | 51% | 1017.3 hPa | 0 mm | - | 196 W/m² | - |
| 1777823147 | 8.89° C | 51% | 1017.4 hPa | 0 mm | - | 861 W/m² | - |
| 1777822845 | 8.33° C | 51% | 1017.5 hPa | 0 mm | - | 820 W/m² | - |
| 1777822543 | 8.89° C | 49% | 1017.6 hPa | 0 mm | - | 131 W/m² | - |
* Rain latest hour (hover to see other rain measurements)
** Current wind speed in m/s (hover to see current wind gust speed)